| time (UTC) | temp F | wind direction | speed MPH | gust MPH | rain 1hr in | rain 24hr in | rain mn in | humidity % | barometer mb |
| 20260510124530 | 43 | 136 | 1.0 | 4.0 | 0.00 | 0.00 | 0.00 | 85 | 1018.9 |
| 20260510123118 | 43 | 170 | 2.0 | 4.0 | 0.00 | 0.00 | 0.00 | 85 | 1019.2 |
| 20260510121529 | 42 | 156 | 3.0 | 7.0 | 0.00 | 0.00 | 0.00 | 87 | 1019.3 |
| 20260510120105 | 41 | 172 | 2.0 | 5.0 | 0.00 | 0.00 | 0.00 | 86 | 1019.0 |
| 20260510114531 | 42 | 164 | 1.0 | 4.0 | 0.00 | 0.00 | 0.00 | 84 | 1019.1 |
| 20260510113030 | 43 | 169 | 1.0 | 4.0 | 0.00 | 0.00 | 0.00 | 84 | 1019.0 |
| 20260510111531 | 42 | 142 | 2.0 | 5.0 | 0.00 | 0.00 | 0.00 | 82 | 1018.8 |
| 20260510110033 | 44 | 171 | 1.0 | 4.0 | 0.00 | 0.00 | 0.00 | 80 | 1018.8 |
| 20260510104528 | 45 | 177 | 2.0 | 6.0 | 0.00 | 0.00 | 0.00 | 80 | 1019.1 |
| 20260510101528 | 45 | 155 | 2.0 | 6.0 | 0.00 | 0.00 | 0.00 | 79 | 1019.0 |
| 20260510094531 | 46 | 158 | 2.0 | 4.0 | 0.00 | 0.00 | 0.00 | 78 | 1019.0 |
| 20260510093034 | 46 | 161 | 3.0 | 6.0 | 0.00 | 0.00 | 0.00 | 78 | 1019.0 |
| 20260510091529 | 45 | 164 | 3.0 | 5.0 | 0.00 | 0.00 | 0.00 | 79 | 1019.1 |
| 20260510090034 | 45 | 157 | 2.0 | 3.0 | 0.00 | 0.00 | 0.00 | 78 | 1019.3 |
| 20260510084534 | 46 | 171 | 1.0 | 4.0 | 0.00 | 0.00 | 0.00 | 76 | 1019.4 |
| 20260510083145 | 47 | 175 | 2.0 | 4.0 | 0.00 | 0.00 | 0.00 | 74 | 1019.6 |
| 20260510081530 | 48 | 153 | 2.0 | 4.0 | 0.00 | 0.00 | 0.00 | 71 | 1019.6 |
| 20260510074533 | 49 | 169 | 4.0 | 6.0 | 0.00 | 0.00 | 0.00 | 69 | 1019.9 |
| 20260510070030 | 51 | 160 | 2.0 | 4.0 | 0.00 | 0.00 | 0.00 | 66 | 1019.9 |
| 20260510064532 | 50 | 158 | 3.0 | 6.0 | 0.00 | 0.00 | 0.00 | 66 | 1019.8 |
| 20260510061529 | 50 | 161 | 3.0 | 6.0 | 0.00 | 0.00 | 0.00 | 66 | 1019.7 |
| 20260510054528 | 51 | 169 | 3.0 | 5.0 | 0.00 | 0.00 | 0.00 | 65 | 1019.6 |
| 20260510053031 | 52 | 158 | 1.0 | 4.0 | 0.00 | 0.00 | 0.00 | 64 | 1019.6 |
| 20260510051529 | 53 | 160 | 3.0 | 5.0 | 0.00 | 0.00 | 0.00 | 64 | 1019.5 |
| 20260510050032 | 56 | 163 | 2.0 | 5.0 | 0.00 | 0.00 | 0.00 | 61 | 1019.4 |
| 20260510044530 | 56 | 165 | 4.0 | 7.0 | 0.00 | 0.00 | 0.00 | 63 | 1019.3 |
| 20260510043034 | 56 | 182 | 4.0 | 6.0 | 0.00 | 0.00 | 0.00 | 65 | 1019.3 |
| 20260510041607 | 57 | 171 | 2.0 | 4.0 | 0.00 | 0.00 | 0.00 | 67 | 1019.2 |
| 20260510040031 | 59 | 154 | 2.0 | 5.0 | 0.00 | 0.00 | 0.00 | 66 | 1019.0 |
| 20260510034606 | 61 | 161 | 1.0 | 4.0 | 0.00 | 0.00 | 0.00 | 64 | 1018.9 |
| 20260510033031 | 63 | 177 | 3.0 | 5.0 | 0.00 | 0.00 | 0.00 | 64 | 1018.9 |
| 20260510031529 | 65 | 168 | 1.0 | 3.0 | 0.00 | 0.00 | 0.00 | 62 | 1018.8 |
| 20260510024604 | 67 | 143 | 1.0 | 3.0 | 0.00 | 0.00 | 0.00 | 55 | 1018.9 |
| 20260510023030 | 69 | 125 | 2.0 | 3.0 | 0.00 | 0.00 | 0.00 | 51 | 1019.0 |
| 20260510021541 | 70 | 98 | 0.0 | 2.0 | 0.00 | 0.00 | 0.00 | 48 | 1018.9 |
| 20260510020032 | 71 | 45 | 0.0 | 2.0 | 0.00 | 0.00 | 0.00 | 43 | 1019.0 |
| 20260510014531 | 73 | 55 | 0.0 | 4.0 | 0.00 | 0.00 | 0.00 | 39 | 1019.1 |
| 20260510011531 | 74 | 305 | 0.0 | 2.0 | 0.00 | 0.00 | 0.00 | 35 | 1019.4 |
| 20260510010146 | 75 | 287 | 2.0 | 6.0 | 0.00 | 0.00 | 0.00 | 33 | 1019.4 |
| 20260510004530 | 76 | 285 | 3.0 | 7.0 | 0.00 | 0.00 | 0.00 | 34 | 1019.4 |
| 20260510003147 | 75 | 300 | 3.0 | 8.0 | 0.00 | 0.00 | 0.00 | 35 | 1019.5 |
| 20260510001607 | 75 | 325 | 4.0 | 8.0 | 0.00 | 0.00 | 0.00 | 36 | 1019.5 |
| 20260510000031 | 75 | 346 | 5.0 | 10.0 | 0.00 | 0.00 | 0.00 | 36 | 1019.5 |
| 20260509233031 | 75 | 338 | 5.0 | 10.0 | 0.00 | 0.00 | 0.00 | 37 | 1019.9 |
| 20260509231543 | 75 | 322 | 4.0 | 10.0 | 0.00 | 0.00 | 0.00 | 38 | 1020.2 |
| 20260509230031 | 75 | 326 | 5.0 | 13.0 | 0.00 | 0.00 | 0.00 | 39 | 1020.4 |
| 20260509224532 | 75 | 328 | 4.0 | 10.0 | 0.00 | 0.00 | 0.00 | 39 | 1020.7 |
| 20260509223031 | 74 | 319 | 4.0 | 11.0 | 0.00 | 0.00 | 0.00 | 39 | 1020.9 |
| 20260509221531 | 73 | 327 | 5.0 | 11.0 | 0.00 | 0.00 | 0.00 | 40 | 1021.1 |
| 20260509220031 | 73 | 316 | 5.0 | 14.0 | 0.00 | 0.00 | 0.00 | 40 | 1021.2 |
| 20260509214528 | 73 | 311 | 5.0 | 11.0 | 0.00 | 0.00 | 0.00 | 43 | 1021.4 |
| 20260509213030 | 72 | 330 | 6.0 | 14.0 | 0.00 | 0.00 | 0.00 | 45 | 1021.6 |
| 20260509211530 | 71 | 307 | 5.0 | 10.0 | 0.00 | 0.00 | 0.00 | 47 | 1021.7 |
| 20260509210031 | 71 | 344 | 5.0 | 11.0 | 0.00 | 0.00 | 0.00 | 48 | 1021.9 |
| 20260509204604 | 71 | 324 | 5.0 | 10.0 | 0.00 | 0.00 | 0.00 | 48 | 1022.1 |
| 20260509203030 | 70 | 303 | 5.0 | 11.0 | 0.00 | 0.00 | 0.00 | 50 | 1022.2 |
| 20260509201602 | 69 | 347 | 4.0 | 10.0 | 0.00 | 0.00 | 0.00 | 51 | 1022.3 |
| 20260509200030 | 69 | 334 | 5.0 | 11.0 | 0.00 | 0.00 | 0.00 | 53 | 1022.6 |
| 20260509194604 | 68 | 7 | 5.0 | 10.0 | 0.00 | 0.00 | 0.00 | 54 | 1022.8 |
| 20260509193144 | 67 | 351 | 4.0 | 9.0 | 0.00 | 0.00 | 0.00 | 54 | 1023.0 |
| 20260509191529 | 66 | 353 | 4.0 | 10.0 | 0.00 | 0.00 | 0.00 | 55 | 1023.1 |
| 20260509190107 | 66 | 347 | 5.0 | 10.0 | 0.00 | 0.00 | 0.00 | 54 | 1023.3 |
| 20260509184530 | 65 | 330 | 4.0 | 8.0 | 0.00 | 0.00 | 0.00 | 55 | 1023.4 |
| 20260509183031 | 64 | 336 | 4.0 | 8.0 | 0.00 | 0.00 | 0.00 | 56 | 1023.5 |
| 20260509181531 | 63 | 343 | 5.0 | 9.0 | 0.00 | 0.00 | 0.00 | 57 | 1023.7 |
| 20260509174530 | 62 | 331 | 5.0 | 10.0 | 0.00 | 0.00 | 0.00 | 59 | 1023.6 |
| 20260509173103 | 61 | 309 | 5.0 | 10.0 | 0.00 | 0.00 | 0.00 | 59 | 1023.6 |
| 20260509171530 | 60 | 336 | 4.0 | 9.0 | 0.00 | 0.00 | 0.00 | 59 | 1023.8 |
| 20260509170032 | 60 | 348 | 5.0 | 10.0 | 0.00 | 0.00 | 0.00 | 61 | 1023.9 |
| 20260509164532 | 59 | 353 | 5.0 | 10.0 | 0.00 | 0.00 | 0.00 | 61 | 1024.0 |
| 20260509163033 | 58 | 314 | 3.0 | 7.0 | 0.00 | 0.00 | 0.00 | 59 | 1024.1 |
| 20260509161532 | 57 | 346 | 3.0 | 6.0 | 0.00 | 0.00 | 0.00 | 59 | 1024.1 |
| 20260509160029 | 56 | 8 | 2.0 | 5.0 | 0.00 | 0.00 | 0.00 | 60 | 1024.2 |
| 20260509154531 | 56 | 66 | 0.0 | 3.0 | 0.00 | 0.00 | 0.00 | 64 | 1024.4 |
| 20260509153030 | 53 | 79 | 1.0 | 3.0 | 0.00 | 0.00 | 0.00 | 70 | 1024.4 |
| 20260509151534 | 51 | 16 | 0.0 | 2.0 | 0.00 | 0.00 | 0.00 | 76 | 1024.3 |
| 20260509150031 | 49 | 118 | 0.0 | 3.0 | 0.00 | 0.00 | 0.00 | 80 | 1024.3 |
| 20260509143107 | 43 | 132 | 2.0 | 4.0 | 0.00 | 0.00 | 0.00 | 87 | 1024.2 |
| 20260509141532 | 41 | 127 | 3.0 | 5.0 | 0.00 | 0.00 | 0.00 | 86 | 1024.0 |
| 20260509140115 | 41 | 156 | 3.0 | 6.0 | 0.00 | 0.00 | 0.00 | 87 | 1023.8 |
| 20260509134533 | 40 | 155 | 3.0 | 7.0 | 0.00 | 0.00 | 0.00 | 89 | 1023.8 |
| 20260509133033 | 40 | 163 | 3.0 | 5.0 | 0.00 | 0.00 | 0.00 | 90 | 1023.8 |
| 20260509131531 | 39 | 144 | 4.0 | 7.0 | 0.00 | 0.00 | 0.00 | 91 | 1023.8 |
| 20260509130031 | 38 | 155 | 3.0 | 5.0 | 0.00 | 0.00 | 0.00 | 91 | 1023.5 |